AB8DT-10 Weather Reports


time (UTC)temp
F
wind
direction
speed
knots
gust
knots
rain 1hr
in
rain 24hr
in
rain mn
in
humidity
%
barometer
mb
20260509064641 50 219 2.6 5.2 0.00 0.00 0.00 43
20260509064141 50 240 3.5 7.0 0.00 0.00 0.00 42
20260509063641 50 223 1.7 4.3 0.00 0.00 0.00 41
20260509063141 50 236 0.0 0.0 0.00 0.00 0.00 42
20260509062641 50 236 0.0 0.0 0.00 0.00 0.00 40
20260509062141 50 236 0.0 0.0 0.00 0.00 0.00 39
20260509061641 50 236 0.0 0.0 0.00 0.00 0.00 40
20260509061141 50 236 0.0 0.0 0.00 0.00 0.00 40
20260509060641 51 236 0.0 0.0 0.00 0.00 0.00 39
20260509060141 51 236 0.0 0.0 0.00 0.00 0.00 37
20260509055641 51 236 0.0 0.0 0.00 0.00 0.00 37
20260509055141 51 236 0.0 0.0 0.00 0.00 0.00 36
20260509054641 51 236 0.0 4.3 0.00 0.00 0.00 36
20260509054141 51 219 0.9 5.2 0.00 0.00 0.00 36
20260509053641 52 254 0.9 3.5 0.00 0.00 0.00 36
20260509053141 51 236 0.9 5.2 0.00 0.00 0.00 35
20260509052641 51 219 2.6 5.2 0.00 0.00 0.00 35
20260509052141 51 246 3.5 6.1 0.00 0.00 0.00 35
20260509051641 51 236 5.2 5.2 0.00 0.00 0.00 36
20260509051141 51 192 0.9 5.2 0.00 0.00 0.00 37
20260509050641 51 220 0.9 6.1 0.00 0.00 0.00 38
20260509050141 51 163 0.9 5.2 0.00 0.00 0.00 37
20260509045641 51 210 1.7 3.5 0.00 0.00 0.00 38
20260509045141 51 227 2.6 4.3 0.00 0.00 0.00 37
20260509044641 51 222 1.7 4.3 0.00 0.00 0.00 38
20260509044141 50 233 2.6 4.3 0.00 0.00 0.00 37
20260509043641 50 230 3.5 3.5 0.00 0.00 0.00 39
20260509043141 51 156 0.0 0.9 0.00 0.00 0.00 39
20260509042641 51 244 0.9 3.5 0.00 0.00 0.00 39
20260509042141 50 196 0.0 0.0 0.00 0.00 0.00 38
20260509041641 51 196 0.0 0.0 0.00 0.00 0.00 37
20260509041141 51 196 0.0 2.6 0.00 0.00 0.00 39
20260509040641 50 191 0.0 3.5 0.00 0.00 0.00 38
20260509040141 50 210 3.5 3.5 0.00 0.00 0.00 39
20260509035641 50 240 2.6 3.5 0.00 0.00 0.00 39
20260509035141 50 222 0.0 0.0 0.00 0.00 0.00 41
20260509034641 50 222 0.0 0.0 0.00 0.00 0.00 40
20260509034141 51 222 0.0 0.0 0.00 0.00 0.00 39
20260509033642 51 222 0.0 0.0 0.00 0.00 0.00 38
20260509033141 51 222 0.0 0.0 0.00 0.00 0.00 38
20260509032641 51 222 0.0 0.0 0.00 0.00 0.00 38
20260509032141 52 222 0.0 1.7 0.00 0.00 0.00 38
20260509031641 52 189 0.0 0.9 0.00 0.00 0.00 38
20260509031141 52 219 0.0 2.6 0.00 0.00 0.00 37
20260509030641 52 213 2.6 3.5 0.00 0.00 0.00 36
20260509030141 52 227 0.0 2.6 0.00 0.00 0.00 37
20260509025641 52 236 1.7 2.6 0.00 0.00 0.00 38
20260509025141 52 198 0.0 0.0 0.00 0.00 0.00 38
20260509024641 52 198 0.0 0.0 0.00 0.00 0.00 38
20260509024141 52 198 0.0 0.0 0.00 0.00 0.00 36
20260509023641 53 198 0.0 0.0 0.00 0.00 0.00 37
20260509023141 53 198 0.0 0.0 0.00 0.00 0.00 37
20260509022641 53 198 0.0 0.0 0.00 0.00 0.00 36
20260509022141 53 198 0.0 0.0 0.00 0.00 0.00 37
20260509021641 53 198 0.0 1.7 0.00 0.00 0.00 37
20260509021141 53 215 0.0 0.0 0.00 0.00 0.00 37
20260509020641 53 215 0.0 0.0 0.00 0.00 0.00 36
20260509020141 53 215 0.0 0.0 0.00 0.00 0.00 36
20260509015641 53 215 0.0 0.0 0.00 0.00 0.00 37
20260509015141 53 215 0.0 0.0 0.00 0.00 0.00 36
20260509014641 54 215 0.0 0.0 0.00 0.00 0.00 36
20260509014141 54 215 0.0 0.0 0.00 0.00 0.00 38
20260509013641 54 215 0.0 1.7 0.00 0.00 0.00 36
20260509013141 55 220 0.0 2.6 0.00 0.00 0.00 37
20260509012641 56 234 1.7 2.6 0.00 0.00 0.00 32
20260509012141 56 246 0.0 0.0 0.00 0.00 0.00 36
20260509011641 56 217 0.0 1.7 0.00 0.00 0.00 31
20260509011141 56 226 0.9 2.6 0.00 0.00 0.00 32
20260509010641 57 257 0.0 0.0 0.00 0.00 0.00 30
20260509010141 57 257 0.0 0.0 0.00 0.00 0.00 31
20260509005641 58 257 0.0 0.0 0.00 0.00 0.00 30
20260509005141 59 257 0.0 0.0 0.00 0.00 0.00 29
20260509004641 59 257 0.0 0.0 0.00 0.00 0.00 27
20260509004141 59 257 0.0 0.0 0.00 0.00 0.00 27
20260509003641 59 257 0.0 0.0 0.00 0.00 0.00 27
20260509003141 60 257 0.0 0.0 0.00 0.00 0.00 27
20260509002641 60 257 0.0 1.7 0.00 0.00 0.00 27
20260509002141 60 285 0.9 5.2 0.00 0.00 0.00 26
20260509001641 60 270 5.2 6.1 0.00 0.00 0.00 26
20260509001141 60 322 0.9 5.2 0.00 0.00 0.00 25
20260509000641 61 260 2.6 4.3 0.00 0.00 0.00 25
20260509000141 61 267 0.9 5.2 0.00 0.00 0.00 25
20260508235641 60 279 1.7 6.1 0.00 0.00 0.00 24
20260508235141 61 285 1.7 5.2 0.00 0.00 0.00 25
20260508234641 61 270 2.6 7.0 0.00 0.00 0.00 25
20260508234142 60 281 3.5 9.6 0.00 0.00 0.00 24
20260508233642 61 255 7.0 10.4 0.00 0.00 0.00 25
20260508233142 61 248 5.2 8.7 0.00 0.00 0.00 24
20260508231642 61 253 6.1 8.7 0.00 0.00 0.00 25
20260508231142 62 323 4.3 7.8 0.00 0.00 0.00 24
20260508230641 62 262 5.2 7.8 0.00 0.00 0.00 24
20260508230142 61 279 0.9 7.0 0.00 0.00 0.00 24
20260508225642 61 281 6.1 9.6 0.00 0.00 0.00 26
20260508225142 61 270 4.3 8.7 0.00 0.00 0.00 25
20260508224642 61 255 7.0 9.6 0.00 0.00 0.00 24
20260508224142 62 282 5.2 7.8 0.00 0.00 0.00 25
20260508223642 61 264 7.8 10.4 0.00 0.00 0.00 24
20260508223142 62 337 1.7 8.7 0.00 0.00 0.00 25
20260508222642 62 281 7.8 10.4 0.00 0.00 0.00 23
20260508222142 62 299 6.1 9.6 0.00 0.00 0.00 23
20260508221642 62 312 3.5 7.0 0.00 0.00 0.00 24
20260508221142 62 295 2.6 7.8 0.00 0.00 0.00 23
20260508220642 62 254 7.0 11.3 0.00 0.00 0.00 24
20260508220142 62 257 0.0 8.7 0.00 0.00 0.00 24
20260508215642 62 258 4.3 5.2 0.00 0.00 0.00 24
20260508215142 62 279 4.3 13.9 0.00 0.00 0.00 24
20260508214642 62 302 7.0 11.3 0.00 0.00 0.00 23
20260508214142 62 293 6.1 9.6 0.00 0.00 0.00 23
20260508213642 62 246 2.6 8.7 0.00 0.00 0.00 25
20260508213142 62 281 7.0 11.3 0.00 0.00 0.00 22
20260508212642 62 261 1.7 7.0 0.00 0.00 0.00 23
20260508212142 61 288 3.5 11.3 0.00 0.00 0.00 23
20260508211642 62 313 7.8 11.3 0.00 0.00 0.00 22
20260508211142 62 302 5.2 11.3 0.00 0.00 0.00 24
20260508210642 62 337 2.6 7.8 0.00 0.00 0.00 22
20260508210142 62 331 3.5 7.0 0.00 0.00 0.00 22
20260508205642 62 279 4.3 11.3 0.00 0.00 0.00 21
20260508205142 62 272 10.4 12.2 0.00 0.00 0.00 21
20260508204642 62 52 1.7 7.8 0.00 0.00 0.00 23
20260508204142 62 323 6.1 11.3 0.00 0.00 0.00 26
20260508203642 62 319 9.6 13.0 0.00 0.00 0.00 23
20260508203142 62 303 8.7 8.7 0.00 0.00 0.00 25
20260508202642 62 313 0.0 9.6 0.00 0.00 0.00 22
20260508202142 61 241 7.0 11.3 0.00 0.00 0.00 23
20260508201642 61 255 8.7 12.2 0.00 0.00 0.00 23
20260508201142 61 30 4.3 10.4 0.00 0.00 0.00 24
20260508200642 61 351 7.8 11.3 0.00 0.00 0.00 23
20260508200142 61 340 6.1 13.0 0.00 0.00 0.00 25
20260508195642 61 312 1.7 7.0 0.00 0.00 0.00 25
20260508195142 61 334 5.2 10.4 0.00 0.00 0.00 23
20260508194642 61 254 9.6 10.4 0.00 0.00 0.00 24
20260508194142 61 275 0.0 6.1 0.00 0.00 0.00 24
20260508193642 61 285 4.3 9.6 0.00 0.00 0.00 27
20260508193142 61 52 7.8 10.4 0.00 0.00 0.00 28
20260508192642 61 277 5.2 14.8 0.00 0.00 0.00 24
20260508192142 62 288 6.1 8.7 0.00 0.00 0.00 28
20260508191642 61 306 4.3 7.8 0.00 0.00 0.00 24
20260508191142 61 7 2.6 8.7 0.00 0.00 0.00 26
20260508190642 61 37 1.7 9.6 0.00 0.00 0.00 26
20260508190142 60 281 7.8 11.3 0.00 0.00 0.00 27
20260508185642 60 279 7.8 13.0 0.00 0.00 0.00 27
20260508185142 60 299 6.1 11.3 0.00 0.00 0.00 28
20260508184642 60 355 6.1 7.8 0.00 0.00 0.00 29
20260508184142 60 286 4.3 9.6 0.00 0.00 0.00 24
20260508183642 60 261 4.3 8.7 0.00 0.00 0.00 28
20260508183142 59 303 4.3 7.0 0.00 0.00 0.00 26
20260508182642 60 289 6.1 8.7 0.00 0.00 0.00 27
20260508182142 61 265 2.6 8.7 0.00 0.00 0.00 28
20260508181642 61 315 4.3 7.0 0.00 0.00 0.00 28
20260508181142 60 177 3.5 10.4 0.00 0.00 0.00 29
20260508180642 60 258 5.2 6.1 0.00 0.00 0.00 26
20260508180142 59 281 5.2 9.6 0.00 0.00 0.00 27
20260508175642 60 248 4.3 9.6 0.00 0.00 0.00 28
20260508175142 59 265 6.1 13.0 0.00 0.00 0.00 29
20260508174642 60 286 0.9 7.0 0.00 0.00 0.00 29
20260508174142 60 253 4.3 5.2 0.00 0.00 0.00 30
20260508173642 59 223 0.9 7.0 0.00 0.00 0.00 31
20260508173142 58 313 4.3 11.3 0.00 0.00 0.00 29
20260508172642 58 358 5.2 10.4 0.00 0.00 0.00 29
20260508172142 59 348 4.3 13.9 0.00 0.00 0.00 33
20260508171642 59 248 4.3 8.7 0.00 0.00 0.00 28
20260508171142 58 278 1.7 11.3 0.00 0.00 0.00 29
20260508170642 59 306 3.5 13.0 0.00 0.00 0.00 30
20260508170142 59 289 11.3 11.3 0.00 0.00 0.00 28
20260508165642 59 306 1.7 8.7 0.00 0.00 0.00 29
20260508165142 58 323 4.3 10.4 0.00 0.00 0.00 29
20260508164642 58 274 0.9 13.9 0.00 0.00 0.00 31
20260508164142 58 255 7.8 9.6 0.00 0.00 0.00 28
20260508163642 58 281 5.2 7.8 0.00 0.00 0.00 29
20260508163142 58 323 0.9 7.8 0.00 0.00 0.00 28
20260508162642 58 286 2.6 9.6 0.00 0.00 0.00 30
20260508161142 58 261 3.5 8.7 0.00 0.00 0.00 29
20260508160642 58 261 7.0 7.0 0.00 0.00 0.00 32
20260508160142 57 191 3.5 8.7 0.00 0.00 0.00 29
20260508155642 57 23 1.7 7.0 0.00 0.00 0.00 26
20260508155142 57 261 6.1 7.0 0.00 0.00 0.00 27
20260508154642 57 284 1.7 13.0 0.00 0.00 0.00 28
20260508154142 57 125 0.0 6.1 0.00 0.00 0.00 31
20260508153642 57 222 4.3 9.6 0.00 0.00 0.00 29
20260508153142 56 260 6.1 10.4 0.00 0.00 0.00 32
20260508152642 56 247 5.2 12.2 0.00 0.00 0.00 31
20260508152142 56 257 7.0 14.8 0.00 0.00 0.00 29
20260508151642 56 255 7.8 8.7 0.00 0.00 0.00 31
20260508151142 56 241 6.1 7.8 0.00 0.00 0.00 35
20260508150642 55 315 4.3 9.6 0.00 0.00 0.00 27
20260508150142 56 247 6.1 9.6 0.00 0.00 0.00 33
20260508145642 56 285 3.5 7.8 0.00 0.00 0.00 31